Time,TemperatureF,DewpointF,PressureIn,WindDirection,WindDirectionDegrees,WindSpeedMPH,WindSpeedGustMPH,Humidity,HourlyPrecipIn,Conditions,Clouds,dailyrainin,SoftwareType,DateUTC
2013-03-26 00:02:00,31.0,26.0,30.11,West,268,7.0,14.0,83,0.00,,,0.13,,2013-03-26 05:02:00,
2013-03-26 00:12:00,31.0,26.0,30.11,West,268,7.0,14.0,83,0.00,,,0.13,,2013-03-26 05:12:00,
2013-03-26 00:22:00,31.0,26.0,30.11,West,268,7.0,14.0,83,0.00,,,0.13,,2013-03-26 05:22:00,
2013-03-26 00:32:00,31.0,27.0,30.12,WNW,299,7.0,10.0,84,0.01,,,0.14,,2013-03-26 05:32:00,
2013-03-26 00:42:00,31.0,27.0,30.12,WNW,299,7.0,10.0,84,0.01,,,0.14,,2013-03-26 05:42:00,
2013-03-26 00:52:00,31.0,27.0,30.12,WNW,299,7.0,10.0,84,0.01,,,0.14,,2013-03-26 05:52:00,
2013-03-26 01:02:00,31.0,27.0,30.12,WNW,289,5.0,10.0,84,0.00,,,0.14,,2013-03-26 06:02:00,
2013-03-26 01:12:00,31.0,27.0,30.12,WNW,289,5.0,10.0,84,0.00,,,0.14,,2013-03-26 06:12:00,
2013-03-26 01:22:00,31.0,27.0,30.12,WNW,289,5.0,10.0,84,0.00,,,0.14,,2013-03-26 06:22:00,
2013-03-26 01:32:00,31.0,27.0,30.12,West,275,5.0,10.0,84,0.00,,,0.14,,2013-03-26 06:32:00,
2013-03-26 01:43:00,31.0,27.0,30.12,West,275,5.0,10.0,84,0.00,,,0.14,,2013-03-26 06:43:00,
2013-03-26 01:52:00,31.0,27.0,30.12,West,275,5.0,10.0,84,0.00,,,0.14,,2013-03-26 06:52:00,
2013-03-26 02:02:00,30.0,26.0,30.13,WNW,286,5.0,8.0,85,0.00,,,0.14,,2013-03-26 07:02:00,
2013-03-26 02:12:00,30.0,26.0,30.13,WNW,286,5.0,8.0,85,0.00,,,0.14,,2013-03-26 07:12:00,
2013-03-26 02:22:00,30.0,26.0,30.13,WNW,286,5.0,8.0,85,0.00,,,0.14,,2013-03-26 07:22:00,
2013-03-26 02:33:00,31.0,27.0,30.13,WNW,289,3.0,6.0,85,0.00,,,0.14,,2013-03-26 07:33:00,
2013-03-26 02:43:00,31.0,27.0,30.13,WNW,289,3.0,6.0,85,0.00,,,0.14,,2013-03-26 07:43:00,
2013-03-26 02:53:00,31.0,27.0,30.13,WNW,289,3.0,6.0,85,0.00,,,0.14,,2013-03-26 07:53:00,
2013-03-26 03:02:00,30.0,26.0,30.13,WNW,289,3.0,6.0,85,0.00,,,0.14,,2013-03-26 08:02:00,
2013-03-26 03:12:00,30.0,26.0,30.13,WNW,289,3.0,6.0,85,0.00,,,0.14,,2013-03-26 08:12:00,
2013-03-26 03:22:00,30.0,26.0,30.13,WNW,289,3.0,6.0,85,0.00,,,0.14,,2013-03-26 08:22:00,
2013-03-26 03:32:00,30.0,26.0,30.13,WNW,293,3.0,6.0,85,0.00,,,0.14,,2013-03-26 08:32:00,
2013-03-26 03:42:00,30.0,26.0,30.13,WNW,293,3.0,6.0,85,0.00,,,0.14,,2013-03-26 08:42:00,
2013-03-26 03:52:00,30.0,26.0,30.13,WNW,293,3.0,6.0,85,0.00,,,0.14,,2013-03-26 08:52:00,
2013-03-26 04:02:00,30.0,26.0,30.13,WNW,293,3.0,6.0,85,0.00,,,0.14,,2013-03-26 09:02:00,
2013-03-26 04:12:00,30.0,26.0,30.13,WNW,293,3.0,6.0,85,0.00,,,0.14,,2013-03-26 09:12:00,
2013-03-26 04:22:00,30.0,26.0,30.13,WNW,293,3.0,6.0,85,0.00,,,0.14,,2013-03-26 09:22:00,
2013-03-26 04:33:00,30.0,26.0,30.13,West,281,4.0,6.0,85,0.00,,,0.14,,2013-03-26 09:33:00,
2013-03-26 04:43:00,30.0,26.0,30.13,West,281,4.0,6.0,85,0.00,,,0.14,,2013-03-26 09:43:00,
2013-03-26 04:52:00,30.0,26.0,30.13,West,281,4.0,6.0,85,0.00,,,0.14,,2013-03-26 09:52:00,
2013-03-26 05:02:00,30.0,26.0,30.14,West,279,4.0,8.0,85,0.00,,,0.14,,2013-03-26 10:02:00,
2013-03-26 05:12:00,30.0,26.0,30.14,West,279,4.0,8.0,85,0.00,,,0.14,,2013-03-26 10:12:00,
2013-03-26 05:22:00,30.0,26.0,30.14,West,279,4.0,8.0,85,0.00,,,0.14,,2013-03-26 10:22:00,
2013-03-26 05:32:00,30.0,26.0,30.14,WNW,291,3.0,8.0,84,0.00,,,0.14,,2013-03-26 10:32:00,
2013-03-26 05:43:00,30.0,26.0,30.14,WNW,291,3.0,8.0,84,0.00,,,0.14,,2013-03-26 10:43:00,
2013-03-26 05:53:00,30.0,26.0,30.14,WNW,291,3.0,8.0,84,0.00,,,0.14,,2013-03-26 10:53:00,
2013-03-26 06:03:00,30.0,26.0,30.15,WNW,291,4.0,8.0,84,0.00,,,0.14,,2013-03-26 11:03:00,
2013-03-26 06:12:00,30.0,26.0,30.15,WNW,291,4.0,8.0,84,0.00,,,0.14,,2013-03-26 11:12:00,
2013-03-26 06:22:00,30.0,26.0,30.15,WNW,291,4.0,8.0,84,0.00,,,0.14,,2013-03-26 11:22:00,
2013-03-26 06:32:00,30.0,25.0,30.16,WNW,287,5.0,10.0,83,0.00,,,0.14,,2013-03-26 11:32:00,
2013-03-26 06:43:00,30.0,25.0,30.16,WNW,287,5.0,10.0,83,0.00,,,0.14,,2013-03-26 11:43:00,
2013-03-26 06:52:00,30.0,25.0,30.16,WNW,287,5.0,10.0,83,0.00,,,0.14,,2013-03-26 11:52:00,
2013-03-26 07:03:00,30.0,25.0,30.16,WNW,287,5.0,10.0,83,0.00,,,0.14,,2013-03-26 12:03:00,
2013-03-26 07:12:00,30.0,25.0,30.17,WNW,297,5.0,9.0,82,0.00,,,0.14,,2013-03-26 12:12:00,
2013-03-26 07:22:00,30.0,25.0,30.17,WNW,297,5.0,9.0,82,0.00,,,0.14,,2013-03-26 12:22:00,
2013-03-26 07:32:00,30.0,25.0,30.18,NW,310,7.0,12.0,82,0.00,,,0.14,,2013-03-26 12:32:00,
2013-03-26 07:43:00,30.0,25.0,30.18,NW,310,7.0,12.0,82,0.00,,,0.14,,2013-03-26 12:43:00,
2013-03-26 07:52:00,30.0,25.0,30.18,NW,310,7.0,12.0,82,0.00,,,0.14,,2013-03-26 12:52:00,
2013-03-26 08:03:00,30.0,25.0,30.20,West,281,6.0,10.0,82,0.00,,,0.14,,2013-03-26 13:03:00,
2013-03-26 08:12:00,30.0,25.0,30.20,West,281,6.0,10.0,82,0.00,,,0.14,,2013-03-26 13:12:00,
2013-03-26 08:22:00,30.0,25.0,30.20,West,281,6.0,10.0,82,0.00,,,0.14,,2013-03-26 13:22:00,
2013-03-26 08:32:00,31.0,26.0,30.20,West,279,6.0,11.0,82,0.00,,,0.14,,2013-03-26 13:32:00,
2013-03-26 08:42:00,31.0,26.0,30.20,West,279,6.0,11.0,82,0.00,,,0.14,,2013-03-26 13:42:00,
2013-03-26 08:52:00,31.0,26.0,30.20,West,279,6.0,11.0,82,0.00,,,0.14,,2013-03-26 13:52:00,
2013-03-26 09:02:00,31.0,26.0,30.22,WNW,297,8.0,13.0,81,0.00,,,0.14,,2013-03-26 14:02:00,
2013-03-26 09:11:00,31.0,26.0,30.22,WNW,297,8.0,13.0,81,0.00,,,0.14,,2013-03-26 14:11:00,
2013-03-26 09:22:00,31.0,26.0,30.22,WNW,297,8.0,13.0,81,0.00,,,0.14,,2013-03-26 14:22:00,
2013-03-26 09:32:00,32.0,27.0,30.22,West,279,8.0,13.0,80,0.00,,,0.14,,2013-03-26 14:32:00,
2013-03-26 09:42:00,32.0,27.0,30.22,West,279,8.0,13.0,80,0.00,,,0.14,,2013-03-26 14:42:00,
2013-03-26 09:53:00,32.0,27.0,30.22,West,279,8.0,13.0,80,0.00,,,0.14,,2013-03-26 14:53:00,
2013-03-26 10:02:00,32.0,26.0,30.23,WNW,288,7.0,12.0,79,0.00,,,0.14,,2013-03-26 15:02:00,
2013-03-26 10:12:00,32.0,26.0,30.23,WNW,288,7.0,12.0,79,0.00,,,0.14,,2013-03-26 15:12:00,
2013-03-26 10:22:00,32.0,26.0,30.23,WNW,288,7.0,12.0,79,0.00,,,0.14,,2013-03-26 15:22:00,
2013-03-26 10:33:00,33.0,27.0,30.24,WNW,293,7.0,12.0,77,0.00,,,0.14,,2013-03-26 15:33:00,
2013-03-26 10:43:00,33.0,27.0,30.24,WNW,293,7.0,12.0,77,0.00,,,0.14,,2013-03-26 15:43:00,
2013-03-26 10:53:00,33.0,27.0,30.24,WNW,293,7.0,12.0,77,0.00,,,0.14,,2013-03-26 15:53:00,
2013-03-26 11:02:00,33.0,27.0,30.24,WNW,293,7.0,12.0,77,0.00,,,0.14,,2013-03-26 16:02:00,
2013-03-26 11:33:00,34.0,27.0,30.26,WNW,299,7.0,13.0,75,0.00,,,0.14,,2013-03-26 16:33:00,
2013-03-26 11:42:00,34.0,27.0,30.26,WNW,299,7.0,13.0,75,0.00,,,0.14,,2013-03-26 16:42:00,
2013-03-26 11:53:00,34.0,27.0,30.26,WNW,299,7.0,13.0,75,0.00,,,0.14,,2013-03-26 16:53:00,
2013-03-26 12:02:00,35.0,27.0,30.26,WNW,289,5.0,11.0,73,0.01,,,0.15,,2013-03-26 17:02:00,
2013-03-26 12:12:00,35.0,27.0,30.26,WNW,289,5.0,11.0,73,0.01,,,0.15,,2013-03-26 17:12:00,
2013-03-26 12:23:00,35.0,27.0,30.26,WNW,289,5.0,11.0,73,0.01,,,0.15,,2013-03-26 17:23:00,
2013-03-26 12:32:00,35.0,27.0,30.26,NW,312,8.0,12.0,71,0.02,,,0.16,,2013-03-26 17:32:00,
2013-03-26 12:42:00,35.0,27.0,30.26,NW,312,8.0,12.0,71,0.02,,,0.16,,2013-03-26 17:42:00,
2013-03-26 12:53:00,35.0,27.0,30.26,NW,312,8.0,12.0,71,0.02,,,0.16,,2013-03-26 17:53:00,
2013-03-26 13:02:00,36.0,27.0,30.26,NW,304,8.0,13.0,69,0.03,,,0.18,,2013-03-26 18:02:00,
2013-03-26 13:12:00,36.0,27.0,30.26,NW,304,8.0,13.0,69,0.03,,,0.18,,2013-03-26 18:12:00,
2013-03-26 13:23:00,36.0,27.0,30.26,NW,304,8.0,13.0,69,0.03,,,0.18,,2013-03-26 18:23:00,
2013-03-26 13:34:00,37.0,27.0,30.26,WNW,285,5.0,10.0,67,0.03,,,0.17,,2013-03-26 18:34:00,
2013-03-26 13:42:00,37.0,27.0,30.26,WNW,285,5.0,10.0,67,0.03,,,0.17,,2013-03-26 18:42:00,
2013-03-26 13:53:00,37.0,27.0,30.26,WNW,285,5.0,10.0,67,0.03,,,0.17,,2013-03-26 18:53:00,
2013-03-26 14:02:00,37.0,28.0,30.26,WSW,256,6.0,12.0,70,0.03,,,0.19,,2013-03-26 19:02:00,
2013-03-26 14:12:00,37.0,28.0,30.26,WSW,256,6.0,12.0,70,0.03,,,0.19,,2013-03-26 19:12:00,
2013-03-26 14:22:00,37.0,28.0,30.26,WSW,256,6.0,12.0,70,0.03,,,0.19,,2013-03-26 19:22:00,
2013-03-26 14:32:00,37.0,28.0,30.26,WSW,243,7.0,13.0,71,0.06,,,0.21,,2013-03-26 19:32:00,
2013-03-26 14:42:00,37.0,28.0,30.26,WSW,243,7.0,13.0,71,0.06,,,0.21,,2013-03-26 19:42:00,
2013-03-26 14:53:00,37.0,28.0,30.26,WSW,243,7.0,13.0,71,0.06,,,0.21,,2013-03-26 19:53:00,
2013-03-26 15:02:00,36.0,28.0,30.26,WSW,258,5.0,13.0,73,0.07,,,0.24,,2013-03-26 20:02:00,
2013-03-26 15:13:00,36.0,28.0,30.26,WSW,258,5.0,13.0,73,0.07,,,0.24,,2013-03-26 20:13:00,
2013-03-26 15:22:00,36.0,28.0,30.26,WSW,258,5.0,13.0,73,0.07,,,0.24,,2013-03-26 20:22:00,
2013-03-26 15:32:00,36.0,28.0,30.26,West,266,6.0,12.0,72,0.07,,,0.26,,2013-03-26 20:32:00,
2013-03-26 15:43:00,36.0,28.0,30.26,West,266,6.0,12.0,72,0.07,,,0.26,,2013-03-26 20:43:00,
2013-03-26 15:52:00,36.0,28.0,30.26,West,266,6.0,12.0,72,0.07,,,0.26,,2013-03-26 20:52:00,
2013-03-26 16:02:00,36.0,27.0,30.27,West,268,7.0,13.0,70,0.06,,,0.29,,2013-03-26 21:02:00,
2013-03-26 16:12:00,36.0,27.0,30.27,West,268,7.0,13.0,70,0.06,,,0.29,,2013-03-26 21:12:00,
2013-03-26 16:22:00,36.0,27.0,30.27,West,268,7.0,13.0,70,0.06,,,0.29,,2013-03-26 21:22:00,
2013-03-26 16:32:00,36.0,27.0,30.27,West,268,7.0,13.0,70,0.06,,,0.29,,2013-03-26 21:32:00,
2013-03-26 16:33:00,35.0,27.0,30.27,WNW,287,4.0,8.0,71,0.05,,,0.32,,2013-03-26 21:33:00,
2013-03-26 17:22:00,35.0,27.0,30.27,WNW,287,4.0,8.0,71,0.05,,,0.32,,2013-03-26 22:22:00,
2013-03-26 18:32:00,36.0,26.0,30.27,NW,304,5.0,8.0,66,0.04,,,0.34,,2013-03-26 23:32:00,
2013-03-26 18:43:00,36.0,26.0,30.27,NW,304,5.0,8.0,66,0.04,,,0.34,,2013-03-26 23:43:00,
2013-03-26 18:53:00,36.0,26.0,30.27,NW,304,5.0,8.0,66,0.04,,,0.34,,2013-03-26 23:53:00,
2013-03-26 19:02:00,35.0,25.0,30.28,WNW,294,5.0,8.0,67,0.03,,,0.35,,2013-03-27 00:02:00,
2013-03-26 19:12:00,35.0,25.0,30.28,WNW,294,5.0,8.0,67,0.03,,,0.35,,2013-03-27 00:12:00,
2013-03-26 19:22:00,35.0,25.0,30.28,WNW,294,5.0,8.0,67,0.03,,,0.35,,2013-03-27 00:22:00,
2013-03-26 19:32:00,35.0,26.0,30.29,WNW,294,2.0,5.0,69,0.03,,,0.37,,2013-03-27 00:32:00,
2013-03-26 19:42:00,35.0,26.0,30.29,WNW,294,2.0,5.0,69,0.03,,,0.37,,2013-03-27 00:42:00,
2013-03-26 19:52:00,35.0,26.0,30.29,WNW,294,2.0,5.0,69,0.03,,,0.37,,2013-03-27 00:52:00,
2013-03-26 20:02:00,34.0,26.0,30.29,WSW,256,2.0,6.0,71,0.02,,,0.38,,2013-03-27 01:02:00,
2013-03-26 20:12:00,34.0,26.0,30.29,WSW,256,2.0,6.0,71,0.02,,,0.38,,2013-03-27 01:12:00,
2013-03-26 20:22:00,34.0,26.0,30.29,WSW,256,2.0,6.0,71,0.02,,,0.38,,2013-03-27 01:22:00,
2013-03-26 20:33:00,34.0,27.0,30.29,West,263,1.0,3.0,75,0.02,,,0.38,,2013-03-27 01:33:00,
2013-03-26 20:43:00,34.0,27.0,30.29,West,263,1.0,3.0,75,0.02,,,0.38,,2013-03-27 01:43:00,
2013-03-26 20:53:00,34.0,27.0,30.29,West,263,1.0,3.0,75,0.02,,,0.38,,2013-03-27 01:53:00,
2013-03-26 21:02:00,34.0,27.0,30.29,West,263,1.0,3.0,75,0.02,,,0.38,,2013-03-27 02:02:00,
2013-03-26 21:32:00,33.0,26.0,30.30,West,264,2.0,3.0,76,0.01,,,0.39,,2013-03-27 02:32:00,
2013-03-26 21:42:00,33.0,26.0,30.30,West,264,2.0,3.0,76,0.01,,,0.39,,2013-03-27 02:42:00,
2013-03-26 21:53:00,33.0,26.0,30.30,West,264,2.0,3.0,76,0.01,,,0.39,,2013-03-27 02:53:00,
2013-03-26 22:02:00,33.0,26.0,30.30,West,264,1.0,4.0,76,0.02,,,0.41,,2013-03-27 03:02:00,
2013-03-26 22:12:00,33.0,26.0,30.30,West,264,1.0,4.0,76,0.02,,,0.41,,2013-03-27 03:12:00,
2013-03-26 22:22:00,33.0,26.0,30.30,West,264,1.0,4.0,76,0.02,,,0.41,,2013-03-27 03:22:00,
2013-03-26 22:33:00,33.0,26.0,30.31,West,264,2.0,4.0,76,0.02,,,0.41,,2013-03-27 03:33:00,
2013-03-26 22:43:00,33.0,26.0,30.31,West,264,2.0,4.0,76,0.02,,,0.41,,2013-03-27 03:43:00,
2013-03-26 22:53:00,33.0,26.0,30.31,West,264,2.0,4.0,76,0.02,,,0.41,,2013-03-27 03:53:00,
2013-03-26 23:02:00,33.0,26.0,30.31,West,264,0.0,3.0,75,0.01,,,0.42,,2013-03-27 04:02:00,
2013-03-26 23:13:00,33.0,26.0,30.31,West,264,0.0,3.0,75,0.01,,,0.42,,2013-03-27 04:13:00,
2013-03-26 23:23:00,33.0,26.0,30.31,West,264,0.0,3.0,75,0.01,,,0.42,,2013-03-27 04:23:00,
2013-03-26 23:33:00,33.0,26.0,30.31,West,264,0.0,3.0,75,0.01,,,0.42,,2013-03-27 04:33:00,